This demonstration page uses our WeatherBlox Daily Observations layout. Learn more.

Left ArrowRight Arrow

36.17497, -115.13722

Hourly Observations for September 27, 2017

Temp ( °F °C ) Dew Point ( °F °C ) Humidity (%) Winds ( mph kmh ) Pressure ( in mb ) Visibility ( mi km ) Precip ( " mm )
12:53 am 00:53 Clear 71 21.7 26 -3.3 19 19 NNW 13 20 29.91 1013 10 16 0.00 0.00
1:53 am 01:53 Clear 69 20.6 26 -3.3 20 20 N 14 22 29.91 1013 10 16 0.00 0.00
2:53 am 02:53 Clear 70 21.1 26 -3.3 19 19 NNW 17 28 29.91 1013 10 16 0.00 0.00
3:53 am 03:53 Clear 69 20.6 26 -3.3 20 20 N 16 26 29.91 1013 10 16 0.00 0.00
4:53 am 04:53 Clear 69 20.6 27 -2.8 21 21 NNW 17 28 29.93 1013 10 16 0.00 0.00
5:53 am 05:53 Clear 68 20 28 -2.2 22 22 NNW 15 24 29.94 1014 10 16 0.00 0.00
6:29 am 06:29 Clear with Nearby Thunderstorms 67 19.4 28 -2.2 23 23 N 18 30 29.88 1012 10 16 0.00 0.00
6:51 am 06:51 Sunny 66 19 28 -2 24 24 N 17 28 29.91 1013 10 16 0.00 0.00
6:53 am 06:53 Sunny 67 19.4 28 -2.2 23 23 N 20 31 29.96 1015 10 16 0.00 0.00
7:53 am 07:53 Sunny 69 20.6 29 -1.7 22 22 N 16 26 29.98 1015 10 16 0.00 0.00
8:53 am 08:53 Sunny 72 22.2 29 -1.7 20 20 N 20 31 29.99 1016 10 16 0.00 0.00
9:53 am 09:53 Sunny 74 23.3 29 -1.7 19 19 N 20 31 29.99 1016 10 16 0.00 0.00
10:53 am 10:53 Sunny 78 25.6 28 -2.2 16 16 N 12 19 29.98 1015 10 16 0.00 0.00
11:53 am 11:53 Sunny 80 26.7 28 -2.2 15 15 N 9 15 29.97 1015 10 16 0.00 0.00
12:53 pm 12:53 Sunny 83 28.3 28 -2.2 13 13 NNE 8 13 29.95 1014 10 16 0.00 0.00
1:53 pm 13:53 Sunny 83 28.3 27 -2.8 13 13 WSW 5 7 29.93 1014 10 16 0.00 0.00
2:53 pm 14:53 Sunny 84 28.9 26 -3.3 12 12 WSW 5 7 29.92 1013 10 16 0.00 0.00
3:53 pm 15:53 Sunny 85 29.4 25 -3.9 11 11 Calm 29.91 1013 10 16 0.00 0.00
4:53 pm 16:53 Sunny 85 29.4 26 -3.3 12 12 E 7 11 29.91 1013 10 16 0.00 0.00
5:53 pm 17:53 Sunny 84 28.9 25 -3.9 11 11 ESE 6 9 29.91 1013 10 16 0.00 0.00
6:53 pm 18:53 Clear 81 27.2 26 -3.3 13 13 SSE 5 7 29.92 1013 10 16 0.00 0.00
7:53 pm 19:53 Clear 80 26.7 29 -1.7 15 15 Calm 29.93 1014 10 16 0.00 0.00
8:53 pm 20:53 Clear 76 24.4 32 0 20 20 WNW 7 11 29.95 1014 10 16 0.00 0.00
9:53 pm 21:53 Clear 72 22.2 32 0 23 23 NNW 5 7 29.96 1015 10 16 0.00 0.00
10:53 pm 22:53 Clear 72 22.2 27 -2.8 19 19 N 6 9 29.97 1015 10 16 0.00 0.00
11:53 pm 23:53 Clear 74 23.3 34 1.1 23 23 ENE 8 13 29.98 1015 10 16 0.00 0.00

Powered by AerisWeather